Theta_e
338 339 340 348 348 347 346 346 346 345 344 344 348 349 348 348 348 348 347 345 344 344 344 346 346 344 342 341 341 340 340 341 340 340 340 340 341 341 341 341 342 342 342 344 346 348 349 348 348 348 348 347 347 347 347 347 347 347 346 346 346 346 346 345 345 344 344 345 345 345 345 346 346 347 347 346 347 345 342 342 342 340 338 341 345
338 338 339 342 348 346 346 345 344 344 343 345 347 349 348 348 348 347 345 344 343 343 343 344 344 344 344 343 341 340 340 340 340 339 340 341 342 341 341 341 341 341 342 341 343 345 346 347 347 347 347 347 347 347 347 347 347 346 345 345 346 346 345 344 343 343 343 343 344 344 343 343 344 345 346 345 346 345 342 342 341 338 338 344 343
339 340 339 342 347 347 345 344 344 345 344 345 348 348 348 347 347 347 346 345 345 344 342 343 343 344 344 344 343 341 340 340 340 339 339 339 340 340 341 341 340 340 340 340 342 344 344 345 345 345 346 347 346 346 346 345 345 345 345 345 345 345 344 343 342 342 342 342 342 342 342 343 342 343 345 345 345 344 341 341 340 340 337 342 341
339 340 340 344 346 345 344 344 344 344 343 345 347 347 347 347 347 347 347 344 343 342 342 342 345 344 344 344 343 343 342 341 340 340 340 339 339 339 340 340 340 340 340 341 341 340 341 343 344 345 345 345 345 345 345 345 344 344 344 344 344 343 343 342 342 341 340 340 340 339 338 336 339 344 344 345 344 343 341 341 340 340 341 342 341
340 340 340 341 343 345 345 344 344 344 344 345 347 347 347 347 347 347 345 344 344 344 343 343 342 341 341 340 340 341 342 342 341 341 341 341 341 341 340 341 340 340 340 341 340 340 340 341 343 345 345 345 345 344 344 343 343 343 343 344 343 343 342 342 341 340 339 339 338 337 334 335 337 342 343 344 343 340 340 340 340 340 340 340 341
339 340 340 340 340 342 346 345 344 343 343 345 346 347 347 347 347 347 345 345 344 343 342 342 342 341 340 343 344 343 342 342 342 341 339 339 340 340 340 340 341 340 341 342 341 340 340 340 343 344 344 344 344 343 343 343 343 343 342 343 342 342 341 340 340 339 338 338 337 333 333 335 336 337 340 344 343 339 339 339 340 340 338 339 339
340 340 340 339 339 341 344 345 344 344 344 345 347 347 347 347 347 347 346 346 344 343 341 341 340 339 341 341 343 344 345 344 343 341 339 339 338 338 339 340 340 340 341 341 342 341 341 340 342 344 344 343 343 342 342 342 342 341 342 342 342 341 340 339 338 338 337 334 331 332 333 334 336 335 343 343 342 341 340 341 340 339 338 338 338
340 341 340 339 339 342 344 345 345 344 344 344 347 347 347 347 347 346 346 345 345 344 343 342 339 338 339 341 342 344 344 345 346 345 342 342 341 341 341 340 340 339 340 341 341 342 341 342 341 342 343 342 342 342 342 342 342 342 342 342 341 340 339 338 337 337 336 331 330 330 331 332 333 334 339 340 339 340 340 339 339 338 337 337 334
339 340 340 339 339 342 344 345 345 344 344 343 346 347 347 347 346 346 346 346 346 343 343 341 342 340 339 340 341 342 344 344 344 344 345 344 344 344 343 342 342 342 342 342 341 342 341 340 342 343 343 342 342 342 342 341 341 341 342 341 340 339 338 337 336 335 333 331 331 330 330 330 331 332 338 339 338 336 335 335 336 336 335 334 333
339 340 340 339 339 341 343 345 345 344 344 343 343 346 346 346 346 346 346 346 344 343 343 342 341 340 340 338 338 342 343 343 344 344 345 344 344 343 343 342 342 342 343 343 342 342 341 341 341 342 342 342 341 341 341 341 341 341 341 340 339 338 337 336 334 333 330 330 331 332 333 336 330 332 336 338 337 336 334 334 336 333 333 333 332
339 340 339 339 338 341 345 346 345 345 344 344 343 345 345 345 345 346 346 346 344 343 343 342 341 340 338 337 342 342 342 343 343 344 343 342 342 342 342 342 342 342 342 342 342 341 341 341 341 342 342 341 340 340 340 340 340 340 340 339 338 337 336 334 332 328 328 328 328 328 333 336 331 331 337 337 336 335 335 335 334 333 332 332 331
339 339 339 338 343 341 344 345 345 344 345 344 343 343 345 345 346 346 346 345 345 344 343 341 340 339 339 338 340 340 340 342 343 343 342 342 342 342 342 341 341 340 341 340 340 340 340 341 341 341 341 340 340 340 339 339 339 339 339 338 337 336 334 332 328 326 325 325 326 326 325 328 328 333 337 337 337 335 333 333 333 333 332 332 330
338 339 339 339 338 340 342 344 344 344 344 344 343 343 345 345 345 345 345 345 345 343 341 341 340 339 338 338 338 340 342 343 341 340 340 339 339 340 340 340 340 340 339 340 340 340 340 340 341 341 340 339 339 339 339 339 339 338 338 338 336 335 333 331 326 326 325 324 324 324 324 324 327 333 334 334 334 333 332 330 330 330 331 330 330
337 338 339 340 338 343 340 342 343 344 344 343 343 343 344 344 344 345 345 344 344 342 341 340 340 338 338 338 337 339 342 340 340 340 339 340 340 340 340 340 340 339 339 339 340 339 339 340 340 340 340 339 338 338 338 338 338 338 337 335 334 333 330 329 328 323 323 322 324 324 322 325 327 332 331 332 333 333 331 329 328 328 329 328 328
338 339 340 339 339 339 342 339 341 342 343 343 343 344 343 342 344 344 344 344 343 342 341 340 339 338 337 337 337 340 342 340 341 340 340 340 340 340 340 339 339 338 339 339 339 339 338 339 339 339 339 338 337 337 335 335 336 335 334 333 332 330 327 322 322 320 321 322 321 321 321 322 331 331 331 331 331 330 329 329 328 327 326 325 325
339 339 340 339 338 337 338 341 338 339 340 341 341 342 343 343 343 343 343 342 342 341 340 339 337 336 337 336 336 339 342 341 340 340 340 339 339 339 338 338 338 338 338 338 338 338 338 338 338 338 338 337 336 336 335 335 335 333 332 331 329 327 324 322 320 319 318 319 319 319 319 322 331 331 331 330 328 327 327 326 326 327 326 326 326
338 339 340 340 338 336 337 338 336 335 336 337 337 339 341 342 343 343 343 343 342 341 340 341 340 338 337 338 339 340 342 342 341 340 340 339 338 339 339 339 339 338 337 337 337 337 337 337 337 337 337 336 336 335 335 334 333 333 331 329 329 327 324 322 319 318 318 319 319 319 318 321 329 328 327 328 328 328 328 327 327 326 326 325 325
339 340 339 340 340 338 337 336 335 335 334 334 333 336 338 340 341 341 341 341 341 341 341 341 341 340 339 338 338 339 340 341 340 340 339 339 338 338 338 337 337 337 337 337 337 337 337 337 337 336 336 335 335 334 333 333 333 332 331 328 327 325 323 321 318 318 318 320 316 319 319 330 328 329 328 328 327 325 323 323 323 323 323 324 325
339 339 340 340 339 339 338 335 333 334 333 333 333 334 334 336 337 338 339 340 340 338 337 336 335 335 335 335 334 334 334 335 335 335 336 335 335 332 334 336 336 336 336 336 336 337 336 336 336 335 335 335 334 333 333 331 332 330 330 326 324 322 321 319 317 317 316 317 315 317 320 332 328 329 328 327 325 325 326 326 324 323 323 324 324
338 338 339 339 339 339 339 337 335 333 332 333 332 331 331 332 334 335 336 336 334 333 333 332 329 328 328 329 328 328 328 328 328 330 331 333 331 328 331 336 336 336 336 336 336 336 336 335 335 335 334 333 332 331 331 331 332 330 327 325 321 319 317 316 315 315 316 317 317 316 329 331 327 327 327 326 326 326 325 323 323 323 322 324 324
335 337 338 338 339 338 338 338 337 336 335 333 332 331 331 330 330 330 330 330 330 330 329 325 322 322 323 323 323 323 323 323 324 324 325 326 323 326 330 335 336 336 335 335 335 334 335 335 334 333 332 331 327 327 326 329 329 327 326 322 319 316 316 315 316 315 314 315 316 318 331 332 327 328 328 328 325 323 323 324 323 322 322 324 323
332 334 336 337 337 338 337 338 338 337 337 336 334 332 332 331 328 328 327 327 326 325 324 323 327 321 322 323 322 323 322 321 322 327 323 324 325 324 327 331 334 334 334 334 334 334 333 334 333 332 331 329 324 315 315 319 322 324 321 319 316 315 314 316 315 314 314 314 315 324 332 326 325 327 326 324 324 324 324 323 322 321 321 322 322
330 332 332 334 335 336 338 338 338 338 338 337 335 332 332 331 329 326 326 325 326 324 323 324 321 321 320 320 321 322 321 320 323 323 322 322 324 324 326 330 332 332 332 333 333 333 332 332 332 330 329 324 314 313 314 314 313 316 316 316 314 314 315 315 314 315 313 314 314 327 331 326 326 325 325 325 324 323 322 322 322 321 320 320 320
330 331 330 333 333 334 337 338 337 337 337 337 335 333 333 331 329 326 325 325 324 325 324 323 322 322 322 321 320 320 321 321 325 325 325 321 321 322 323 324 326 327 326 328 330 331 331 330 330 328 323 317 314 312 314 314 314 312 312 313 313 314 314 313 314 314 313 316 314 326 328 325 325 325 325 324 324 323 322 322 321 321 320 319 319
330 330 329 332 333 333 335 336 336 336 337 336 334 333 333 331 329 327 326 325 324 325 325 324 323 322 322 322 320 320 320 321 320 320 320 320 318 320 320 320 320 319 320 316 316 317 316 315 316 316 312 314 314 314 315 316 314 313 314 312 313 313 313 312 313 313 312 313 315 323 324 326 324 324 325 324 324 322 322 321 321 320 319 319 319
326 327 328 330 333 334 335 335 335 336 336 336 335 333 333 332 331 329 327 326 325 325 325 324 323 323 322 322 321 322 320 320 319 319 319 319 318 317 318 317 315 315 315 316 314 313 312 312 313 315 314 314 313 314 314 313 316 313 313 312 314 312 314 313 312 312 312 312 313 322 324 326 324 324 323 323 324 323 322 322 322 321 320 320 320
326 327 328 329 333 334 334 334 335 335 335 336 335 332 333 332 331 329 328 327 326 326 325 324 324 323 322 322 322 321 321 320 319 318 319 319 319 317 316 315 316 315 314 316 313 312 312 312 313 314 313 314 314 313 313 312 313 314 314 313 311 312 312 314 311 312 311 311 314 320 323 326 325 326 327 324 323 322 322 322 322 321 320 320 321
325 327 327 328 330 333 335 334 334 335 335 335 334 333 332 330 330 328 328 327 326 326 325 324 324 323 322 322 322 322 322 320 319 318 318 318 318 319 317 315 315 315 314 314 315 312 312 311 312 312 312 311 311 311 311 312 312 310 313 313 311 312 312 310 311 311 310 310 311 316 321 324 324 326 327 327 324 324 323 323 322 322 322 321 321
325 326 327 328 329 332 333 334 334 334 335 335 334 333 332 331 329 328 328 326 327 326 326 325 324 323 322 322 322 322 321 321 320 319 317 318 317 318 317 317 316 316 315 314 314 313 311 311 311 312 310 311 310 312 312 312 311 310 312 312 312 313 313 311 309 310 310 311 311 312 319 321 324 325 326 326 325 324 324 323 323 323 323 322 322
326 327 327 328 329 331 332 333 334 335 335 335 334 332 332 331 330 329 329 326 326 327 324 324 325 323 322 322 322 322 321 321 320 318 318 318 316 314 316 316 317 315 314 316 313 312 312 309 310 310 310 310 311 313 311 312 310 310 311 311 310 312 309 310 309 309 312 311 312 312 315 318 322 325 326 326 326 328 325 324 325 324 324 323 323
325 326 327 328 328 329 331 332 334 333 334 334 333 333 332 332 330 330 328 327 327 326 325 324 324 324 324 322 321 320 321 320 320 319 318 319 317 316 316 316 316 315 315 315 313 314 313 312 313 311 311 311 312 310 312 311 311 312 309 310 312 310 311 308 309 308 309 311 312 311 313 315 319 323 327 327 326 326 326 325 325 326 325 325 324
324 326 327 328 327 329 330 332 333 333 333 333 332 333 332 332 331 330 329 328 327 326 325 324 323 324 323 323 321 320 320 319 320 319 319 318 317 316 315 314 316 315 315 314 313 313 314 311 309 309 310 310 311 309 309 311 313 312 309 309 308 310 310 310 309 308 310 310 312 312 312 312 314 318 322 327 327 326 326 326 328 328 326 326 326
326 327 327 326 327 329 330 330 333 332 333 333 332 333 332 332 331 331 329 328 327 326 326 325 324 324 323 323 322 321 320 320 319 319 318 318 317 317 314 315 316 315 314 314 313 311 310 311 311 309 309 309 310 309 309 308 309 313 308 310 308 311 312 309 311 310 310 310 310 311 312 312 311 313 316 319 324 327 326 326 328 329 329 326 326
325 326 327 326 328 330 330 331 331 332 332 333 331 332 331 331 331 331 329 328 328 326 326 325 325 324 324 323 323 321 320 320 320 318 318 317 317 317 316 314 313 313 313 312 312 312 310 309 309 309 311 309 309 307 308 308 308 307 307 306 306 310 310 311 310 312 310 312 311 311 311 311 311 312 313 315 318 321 326 327 327 328 328 329 327
325 325 326 327 327 329 330 330 328 331 330 332 330 331 331 330 331 331 329 328 328 327 326 325 325 325 324 323 323 322 320 320 319 320 318 316 316 315 315 316 314 311 312 311 313 311 310 312 308 309 307 307 307 306 307 306 306 309 310 308 310 309 308 311 312 311 309 311 310 310 311 310 311 311 312 312 312 315 320 325 327 327 327 328 329
325 326 326 327 327 328 328 329 328 330 331 332 331 330 330 330 331 328 330 328 328 327 327 326 325 324 324 324 323 323 321 320 318 318 318 317 316 316 316 315 312 312 312 310 310 312 311 311 309 309 309 309 306 310 306 307 305 308 308 308 308 308 309 309 310 311 311 309 310 311 311 310 310 310 310 311 311 312 316 319 323 326 327 328 328
326 326 326 326 326 327 327 328 327 329 330 331 331 330 330 330 330 330 330 329 328 327 327 326 325 325 324 324 324 324 323 321 318 317 318 317 315 316 314 314 312 313 311 310 311 312 312 312 310 308 309 310 307 308 308 305 308 308 308 307 308 308 308 310 311 311 310 309 309 309 310 311 310 309 309 310 311 311 313 315 318 321 322 325 326
326 326 327 327 327 327 327 328 328 329 330 330 330 330 329 329 329 330 328 329 328 328 327 326 326 326 325 324 324 325 325 324 320 317 318 317 317 316 315 314 313 313 313 313 314 313 313 313 312 310 311 311 309 308 308 307 306 307 307 307 308 305 308 308 309 308 308 310 310 309 310 310 310 310 310 310 310 311 311 312 314 316 315 317 322
327 326 327 327 327 327 327 326 327 328 329 329 329 329 328 328 328 329 329 329 330 330 329 327 327 328 327 326 325 326 325 327 324 319 320 317 317 316 316 315 315 315 315 314 314 313 313 312 312 312 310 312 311 308 309 307 308 308 308 308 306 306 307 306 306 307 308 309 310 311 309 310 309 309 310 310 309 309 311 311 311 311 312 313 318
327 326 325 326 327 327 326 327 326 328 328 328 328 328 327 326 326 325 328 328 329 329 330 329 327 328 328 328 327 327 326 326 326 322 321 320 318 317 318 318 317 316 315 314 313 313 312 311 311 311 311 310 309 310 310 310 310 309 307 306 305 304 304 305 305 306 307 307 308 307 308 309 308 309 308 309 308 308 310 310 308 310 311 312 314
326 326 325 324 326 327 325 325 327 327 327 327 327 327 326 326 325 326 327 329 329 328 327 327 327 327 328 328 328 327 327 326 326 326 324 321 323 321 320 318 318 316 315 315 315 314 313 312 312 311 312 311 311 311 311 311 310 309 308 305 306 305 304 304 305 306 306 307 304 304 305 305 306 306 308 308 307 308 308 309 309 308 309 310 311
323 325 325 325 325 326 326 326 326 327 327 328 328 328 329 328 327 327 327 327 328 328 328 328 327 326 327 328 328 328 327 326 325 326 326 325 322 321 320 318 317 316 316 316 315 312 312 312 312 310 310 311 310 311 311 311 307 307 306 306 305 305 306 304 304 305 305 304 304 304 304 304 304 306 307 307 307 307 307 306 307 307 307 308 309
323 324 325 325 324 325 326 326 327 327 327 328 329 328 329 329 329 326 327 321 325 329 330 329 326 326 325 326 327 328 327 326 326 325 325 326 325 323 321 319 316 316 314 314 313 312 312 312 311 311 308 306 308 309 311 311 309 304 306 305 304 303 303 302 298 299 302 303 302 302 303 302 303 304 305 304 304 305 306 306 306 306 306 306 306
321 322 324 324 325 324 325 326 326 327 327 327 326 329 329 328 324 320 322 322 320 322 324 326 328 326 325 324 324 326 327 327 326 325 325 325 324 324 323 320 318 316 315 314 313 313 312 311 310 309 309 308 306 308 309 310 311 308 306 304 301 300 303 303 296 301 301 302 301 302 301 302 302 302 301 301 303 304 305 305 305 305 305 305 306
320 321 323 324 325 325 325 326 326 327 327 326 326 327 324 321 321 317 317 318 314 320 323 325 327 326 327 324 324 324 326 327 327 326 325 325 324 324 323 321 320 317 316 315 314 314 313 312 310 309 309 311 309 305 306 308 310 312 310 303 302 299 301 303 304 309 300 300 299 301 300 300 301 301 300 301 302 303 304 304 303 303 303 304 304
319 321 322 324 324 325 325 326 326 326 327 326 326 326 324 325 322 322 320 321 321 319 321 323 325 325 326 327 325 323 324 325 327 327 325 324 324 323 321 319 318 318 316 316 316 314 313 311 311 312 311 311 312 310 307 307 308 309 310 310 311 308 306 303 306 304 305 305 305 301 301 300 300 300 300 301 301 302 302 301 302 302 302 303 303
319 320 321 322 323 324 325 325 326 326 327 326 325 324 325 325 324 324 324 324 323 323 323 321 326 327 328 327 327 325 324 324 324 326 326 324 324 323 322 320 319 317 316 316 315 314 314 313 312 311 312 311 309 309 309 311 306 306 307 308 308 307 306 305 304 303 301 303 303 303 304 300 300 300 300 300 301 300 301 301 301 301 302 302 302
318 318 320 321 321 322 323 324 325 324 326 326 325 325 325 324 324 323 323 323 323 323 321 318 317 321 325 326 326 326 325 323 323 324 326 325 324 323 322 320 318 317 315 316 316 315 313 313 312 313 312 312 311 310 310 310 309 308 306 307 306 306 306 304 304 302 301 299 302 307 306 305 301 301 300 301 301 301 301 301 301 301 301 302 302
314 316 318 319 321 322 321 322 323 323 323 324 324 324 324 325 324 324 322 322 322 318 312 312 316 317 322 324 325 326 325 324 323 322 323 325 322 323 322 320 319 317 315 314 315 315 314 313 312 311 311 311 311 311 310 310 309 309 306 304 304 304 304 303 302 301 300 299 301 302 304 303 302 303 302 302 303 302 302 303 303 302 303 302 302
308 309 309 311 314 315 317 319 321 322 322 323 323 324 323 322 323 322 322 320 315 311 312 314 314 314 318 319 323 324 324 324 323 323 323 323 323 322 322 321 320 319 313 316 315 314 314 313 313 311 312 311 311 310 310 310 310 309 308 308 304 302 301 300 300 299 299 300 298 299 301 302 302 305 307 304 303 304 304 303 302 302 302 302 302
299 300 304 307 309 312 314 317 320 320 320 322 322 323 323 322 323 322 321 319 314 314 312 312 313 310 316 316 320 322 323 324 323 323 323 323 322 320 321 321 320 315 313 313 313 314 313 313 312 311 311 311 310 309 308 309 309 308 307 307 307 307 306 304 304 300 300 298 298 301 303 303 302 303 305 307 306 306 305 303 302 302 301 302 302
Wind_Speed
3 4 3 6 9 11 11 11 13 13 11 13 14 13 13 14 14 14 16 16 15 14 15 18 18 18 18 18 17 17 17 18 19 19 18 18 19 19 18 19 18 17 16 17 17 18 19 20 20 20 21 21 21 20 19 19 19 20 20 20 20 21 21 21 21 21 21 21 20 19 18 18 19 19 19 20 20 19 17 17 14 11 9 14 20
7 3 3 3 8 10 11 11 13 13 13 13 13 14 13 13 14 14 15 16 15 14 16 17 17 17 17 18 17 17 18 18 18 19 19 19 18 18 19 19 18 18 17 16 17 17 18 20 20 20 20 20 20 20 20 20 20 19 19 20 19 20 20 20 19 19 19 19 20 20 20 20 19 19 19 20 20 19 16 17 17 10 8 17 19
5 4 3 4 8 10 11 12 13 14 14 13 12 13 12 13 12 13 15 15 15 15 14 16 17 17 17 17 18 17 17 18 19 18 18 18 18 18 19 19 19 18 18 17 17 18 18 19 19 20 20 19 20 20 20 20 20 19 19 20 20 18 18 18 18 18 17 18 17 17 18 20 20 19 20 20 20 19 16 18 17 16 11 19 17
7 4 3 5 8 10 12 12 13 12 12 13 13 13 13 12 13 14 15 15 15 15 14 16 17 16 16 16 17 16 17 17 18 17 18 18 18 18 17 18 18 19 18 18 17 15 18 18 19 19 19 18 19 20 19 19 19 19 19 19 18 18 18 18 18 17 17 17 16 14 8 7 11 19 19 19 19 19 16 18 18 18 19 18 18
7 4 3 4 5 8 11 12 13 12 11 12 13 13 13 13 13 14 15 15 15 16 16 15 16 16 16 15 16 16 17 17 17 17 17 17 17 17 18 17 18 17 18 18 18 17 16 17 19 18 18 18 18 18 18 18 19 19 19 19 18 18 19 18 17 17 17 16 15 12 7 6 7 16 18 19 18 16 16 17 17 18 18 18 17
6 5 4 4 4 6 10 12 13 14 13 13 14 13 14 13 13 15 15 15 15 14 15 15 16 16 16 16 16 16 17 16 17 16 16 17 17 17 17 17 17 18 18 18 18 18 16 16 18 19 18 18 18 18 18 18 19 19 19 19 19 18 18 17 17 16 15 16 16 7 7 7 7 9 17 19 19 16 17 18 18 17 17 18 17
8 4 4 4 4 5 9 12 14 13 12 12 13 13 13 13 13 14 15 15 15 15 15 15 14 14 15 14 15 16 16 16 17 17 16 16 17 16 16 17 17 17 18 18 18 18 18 17 18 18 18 19 19 19 18 19 19 19 19 19 18 17 17 16 15 15 14 9 6 6 6 7 6 6 17 19 18 18 18 18 18 17 17 16 16
6 5 4 4 4 6 10 12 13 13 13 12 14 13 13 13 12 13 15 15 15 15 15 15 14 12 15 15 14 14 15 15 16 15 16 17 16 16 17 17 17 17 17 17 18 18 18 17 18 18 19 19 20 19 19 18 18 18 18 17 17 17 16 16 15 13 12 8 6 6 6 6 6 6 17 18 18 19 18 18 17 17 17 16 12
7 5 5 4 4 9 10 10 13 14 13 13 14 13 13 13 13 12 13 14 14 15 14 14 14 14 13 14 14 15 15 15 15 16 16 17 17 17 17 17 17 16 17 17 18 17 18 18 17 17 19 19 20 19 18 18 18 18 18 17 17 17 16 15 13 12 8 6 6 6 6 5 5 6 14 17 18 18 17 13 13 16 16 14 14
6 5 4 4 5 9 10 11 13 13 13 12 12 13 12 13 13 13 14 13 14 13 14 14 14 13 13 13 14 14 15 15 16 16 15 16 17 17 16 16 16 16 16 16 16 17 17 17 17 17 18 18 18 18 18 18 18 18 17 17 17 16 15 14 12 9 6 6 6 5 7 8 4 5 13 16 16 16 14 10 9 9 10 15 15
7 6 4 4 5 9 10 11 11 12 13 12 12 13 12 12 13 14 13 12 14 14 15 14 14 13 12 13 15 14 14 15 15 15 15 16 15 16 16 16 16 16 16 16 16 16 16 16 16 16 16 16 16 17 17 17 17 17 17 17 16 16 14 12 9 6 6 6 5 5 5 8 4 4 14 15 15 14 10 11 11 12 14 15 14
7 6 4 4 8 9 10 11 11 12 11 12 12 13 12 12 13 14 13 12 14 15 14 14 13 13 12 12 14 14 14 14 14 15 15 15 15 16 15 16 15 15 15 15 15 14 14 15 15 15 15 14 15 15 16 16 16 16 16 15 15 14 12 11 7 6 5 5 5 4 4 5 5 8 15 14 14 14 13 14 14 14 14 14 13
8 6 5 4 4 8 10 11 11 11 12 12 12 13 13 13 14 14 13 13 14 15 14 13 13 13 12 11 12 13 12 12 13 14 14 14 14 14 14 14 14 14 15 15 15 14 13 14 14 14 13 13 14 14 14 15 15 15 15 14 13 12 10 9 6 6 5 5 5 5 5 4 4 11 12 12 12 13 13 12 12 13 13 13 12
9 7 6 5 4 9 10 10 10 10 11 12 12 13 14 13 14 13 13 13 14 14 13 13 12 12 12 11 11 11 10 12 13 13 13 13 13 13 13 14 14 14 14 14 14 13 13 12 13 13 12 13 13 13 14 14 14 14 14 13 12 11 10 7 6 5 6 6 5 6 5 4 5 12 11 11 12 13 13 12 11 12 13 13 12
10 9 7 5 5 4 10 10 10 10 10 10 9 8 12 12 12 13 13 13 13 13 12 12 12 12 11 11 11 10 9 11 13 13 13 13 13 13 13 13 13 13 13 13 13 13 12 12 11 11 11 11 11 13 15 16 15 13 12 11 10 9 9 6 5 5 5 5 4 5 5 4 10 11 12 11 11 11 11 11 12 11 10 10 10
11 9 8 6 5 4 5 9 10 10 9 9 9 9 10 10 9 11 13 12 12 12 11 12 11 10 11 11 11 9 10 12 12 12 11 12 13 12 13 13 13 12 12 13 12 12 12 11 11 10 10 10 10 12 14 14 13 12 12 11 9 9 9 7 5 5 5 4 3 3 3 3 11 11 10 11 10 10 10 10 10 10 10 10 10
9 9 9 8 6 4 5 5 6 9 9 9 8 9 9 8 9 10 10 10 11 11 10 10 10 10 10 10 10 8 9 11 12 12 11 11 13 12 12 12 12 12 12 12 12 12 11 10 10 9 9 9 10 11 12 12 13 11 9 8 8 9 9 7 5 4 5 4 3 3 3 3 7 9 9 9 9 9 10 10 9 9 11 9 9
9 9 9 8 7 5 5 4 5 5 5 6 8 9 9 9 8 9 10 10 9 9 9 9 9 9 9 9 8 8 9 10 10 11 11 10 11 9 10 11 11 11 11 12 11 11 11 10 9 9 8 8 8 10 11 11 12 11 9 8 9 10 9 8 4 4 4 4 3 3 3 6 8 8 8 8 8 9 9 9 8 7 7 9 9
9 9 9 9 8 6 5 5 4 4 5 5 4 6 9 9 9 9 9 10 9 9 9 9 9 9 9 9 9 9 9 10 10 10 10 10 9 9 9 9 11 11 11 11 11 11 10 9 8 8 7 7 7 8 9 9 9 9 8 7 8 9 9 6 4 4 4 4 3 3 3 5 7 7 7 7 8 7 7 8 7 7 7 7 7
8 8 8 8 7 7 5 5 4 4 4 4 4 4 7 9 8 9 9 10 10 9 10 9 8 8 9 9 9 7 7 6 9 7 9 9 9 6 8 8 10 11 11 10 10 10 9 8 7 6 6 6 6 6 6 7 7 7 6 6 7 7 5 5 4 4 4 3 2 2 4 4 6 6 6 6 6 6 6 6 6 5 6 8 8
5 7 8 7 8 8 9 6 5 5 4 4 4 4 5 8 7 8 9 10 9 9 9 9 8 7 7 8 7 5 4 4 5 4 7 6 8 9 8 8 8 8 9 9 9 9 8 7 6 6 5 5 4 5 5 6 7 8 9 7 7 5 4 4 3 3 3 2 3 3 4 2 4 5 5 6 5 5 5 5 5 5 5 6 6
7 7 7 7 9 7 9 7 6 6 5 4 3 3 4 5 4 4 5 7 7 8 7 5 5 4 7 5 4 4 4 3 4 5 5 5 7 9 9 8 8 8 8 8 8 7 6 5 5 5 4 5 5 4 3 5 6 7 7 7 4 4 3 4 4 3 2 2 2 4 4 4 2 4 4 3 4 4 4 3 4 4 4 5 6
8 7 6 8 7 7 8 9 7 7 7 5 4 4 5 4 4 4 4 6 6 5 5 5 4 4 4 3 4 3 4 3 5 4 4 6 6 9 9 8 8 8 8 7 7 6 5 5 4 3 4 5 3 3 4 3 3 5 5 4 3 3 3 3 3 4 3 2 2 4 4 1 3 2 2 3 3 2 2 2 3 2 3 3 3
9 8 8 7 7 7 8 8 8 8 7 5 5 5 4 5 4 4 4 4 5 5 5 5 5 4 4 4 4 3 4 3 4 7 6 4 5 7 8 8 8 8 8 5 5 5 4 3 3 3 3 3 2 2 3 3 3 2 2 4 3 3 3 3 3 3 3 2 2 4 3 3 3 2 2 1 2 1 2 1 1 2 1 2 0
8 7 7 8 8 8 8 8 8 8 8 6 7 6 5 5 4 4 4 4 4 5 5 5 5 5 5 5 4 3 3 4 4 3 4 5 4 4 4 4 3 4 5 3 2 2 3 2 1 1 0 1 2 3 3 4 4 2 3 2 2 3 3 3 2 3 3 2 1 5 3 2 1 1 2 2 1 1 1 1 1 1 1 1 1
5 7 8 8 9 8 9 8 8 8 8 7 7 6 6 6 6 5 5 4 4 5 5 5 5 5 5 5 4 5 3 4 4 4 4 4 4 4 4 3 3 3 2 4 1 1 1 2 2 1 1 1 1 2 2 2 4 2 2 3 0 2 4 3 2 2 2 2 2 5 4 2 4 2 1 1 1 2 1 2 2 2 2 3 2
7 8 7 7 8 8 9 8 8 8 9 7 6 6 6 6 5 6 6 5 5 5 5 5 5 4 4 5 6 5 5 4 4 4 4 4 5 4 4 3 4 4 2 3 2 1 1 2 2 1 0 1 3 3 4 2 3 2 1 1 1 2 3 4 3 3 3 2 3 4 5 4 5 3 6 3 3 3 4 4 4 3 3 4 4
6 8 7 7 9 10 9 9 9 9 8 7 8 7 6 6 6 6 6 6 6 5 5 5 4 5 4 5 6 6 6 5 5 5 5 4 5 4 3 4 3 3 2 2 3 1 1 1 1 1 1 2 3 3 2 2 1 1 0 0 1 0 1 2 3 3 3 3 3 4 5 5 2 4 8 9 6 6 6 5 6 6 5 5 6
8 8 7 7 9 9 9 10 9 10 8 8 8 7 6 6 6 6 6 6 6 6 6 5 5 5 4 5 6 6 5 5 6 5 5 5 4 4 4 5 3 4 3 3 2 3 2 2 2 2 2 3 1 2 3 2 0 0 0 1 1 0 0 1 2 3 3 3 3 5 7 6 4 5 8 7 8 8 8 6 7 8 7 7 7
10 9 8 8 7 9 10 11 10 11 9 8 7 7 7 7 7 7 7 6 6 6 4 5 5 5 5 5 6 6 7 6 6 5 6 5 4 3 4 5 5 4 4 5 5 4 4 3 2 1 2 3 2 4 1 2 3 1 0 1 2 4 2 2 3 3 5 3 4 4 8 8 7 6 7 8 10 13 8 9 10 10 10 9 9
8 9 8 8 7 8 9 10 10 10 9 9 8 8 8 8 7 7 6 7 6 6 5 6 6 5 6 5 6 6 6 6 6 6 5 6 5 5 5 5 5 5 5 6 4 6 5 5 4 3 3 3 5 3 1 3 3 4 2 1 4 3 3 2 1 3 3 5 5 4 5 8 8 8 7 9 11 12 11 11 10 11 11 11 12
10 11 9 7 7 9 10 9 10 10 10 10 9 8 9 8 7 7 7 7 6 6 6 6 6 6 5 6 6 5 5 5 5 5 6 6 6 6 5 5 6 5 5 5 5 5 5 4 3 3 3 3 3 2 1 2 4 4 3 3 3 3 4 3 3 3 4 4 5 5 5 5 8 9 9 9 12 13 13 13 13 13 13 13 13
9 11 11 9 11 10 10 10 10 10 11 11 10 8 8 8 8 8 7 7 7 6 7 7 6 6 5 6 6 6 6 6 5 6 6 6 6 6 5 6 6 6 5 5 5 3 2 1 1 1 1 1 1 2 1 1 3 5 3 4 3 4 4 3 4 3 4 4 5 6 5 5 5 8 10 10 10 12 14 15 15 15 15 14 15
10 9 10 12 10 8 8 8 9 11 12 10 9 8 8 8 8 7 7 7 7 7 7 6 6 6 6 6 6 6 6 6 6 5 5 5 5 6 6 6 5 5 5 4 4 4 3 2 2 1 3 2 3 3 1 3 3 3 4 4 3 5 4 4 5 6 5 5 6 5 6 6 6 5 6 10 12 12 13 16 16 16 16 17 16
9 9 13 14 12 10 9 8 10 11 11 10 10 10 8 8 8 8 7 8 7 7 7 6 6 6 6 6 6 6 6 6 5 6 6 5 5 5 6 6 5 4 5 4 5 3 3 5 3 3 3 2 2 3 2 3 3 5 4 4 6 5 3 5 6 6 5 5 4 5 5 6 5 5 6 6 8 12 13 13 17 18 18 18 19
13 13 12 11 12 11 10 10 10 11 11 11 10 10 10 9 8 8 8 8 8 8 7 7 7 6 7 7 6 6 6 6 5 5 6 6 6 6 6 5 4 5 4 4 3 4 4 4 4 3 4 5 3 5 2 4 3 5 5 4 6 5 6 5 6 6 6 4 5 6 5 6 5 6 6 6 6 8 13 14 14 16 17 18 19
13 12 13 11 12 12 12 12 12 13 12 11 10 8 8 9 9 9 9 8 8 8 7 7 6 6 6 7 7 7 6 6 5 5 6 5 6 6 5 5 4 5 5 4 5 4 4 4 4 4 4 5 4 5 5 3 5 5 5 5 6 6 6 6 6 6 5 5 6 6 6 6 6 6 6 6 6 6 10 14 14 15 17 17 18
11 13 13 14 14 12 12 12 11 12 11 11 10 9 8 8 8 8 8 9 9 8 7 7 7 7 7 7 6 7 7 6 6 5 5 5 5 5 5 5 5 5 5 5 6 4 4 5 5 4 4 3 4 4 5 4 4 5 6 6 7 6 6 6 7 6 6 7 6 6 7 6 6 6 6 6 6 6 6 10 14 16 16 16 16
10 12 12 12 11 11 10 11 11 11 10 10 9 8 7 7 6 7 8 8 8 8 7 7 8 7 7 7 7 6 7 8 6 5 5 5 5 4 4 4 5 6 5 5 4 4 3 3 5 5 3 5 5 4 6 4 4 4 5 6 5 6 6 6 6 6 6 7 8 8 5 7 5 6 6 6 6 6 7 7 6 7 9 15 15
11 10 11 11 11 10 9 10 10 10 8 8 8 8 7 8 8 5 8 9 8 8 8 8 7 8 8 8 8 7 6 7 8 6 5 5 5 5 5 5 5 5 6 5 5 5 6 5 5 5 4 3 3 4 3 4 5 4 6 7 6 6 6 7 6 7 7 7 8 6 6 6 5 6 6 6 6 6 6 7 6 7 7 10 14
11 11 10 11 12 13 12 13 11 10 9 9 9 10 10 8 7 10 11 9 9 8 8 7 8 8 8 8 9 8 8 7 8 9 7 6 5 5 6 5 6 5 5 6 7 7 6 5 4 3 5 4 4 3 4 1 3 5 6 6 7 5 7 7 8 7 7 7 5 5 6 6 6 6 7 6 5 5 6 7 7 6 7 7 9
11 11 13 14 12 12 14 13 10 10 11 12 11 10 11 11 11 11 9 8 9 9 10 8 8 7 8 8 8 9 9 8 7 7 10 8 6 5 5 5 5 5 6 6 5 4 4 4 3 3 3 5 4 3 3 2 2 4 6 6 5 6 8 5 7 7 6 5 6 6 6 7 7 7 7 6 6 6 7 7 7 7 7 7 8
13 13 14 13 12 11 11 11 11 12 12 12 11 12 10 9 10 7 9 5 5 7 7 7 6 7 8 8 8 9 9 8 8 7 7 9 10 8 5 5 5 5 5 5 4 5 5 6 6 6 4 1 3 2 3 5 5 1 0 3 6 8 2 2 2 4 6 7 5 6 7 5 9 7 7 6 6 7 7 7 8 8 9 8 8
11 10 11 13 11 11 11 12 12 12 12 12 12 12 11 8 5 4 5 6 6 5 5 5 7 8 9 7 8 8 9 9 9 8 7 6 7 8 6 6 6 5 6 6 5 6 5 5 5 6 3 3 2 5 4 5 5 2 4 3 2 1 11 4 2 6 6 5 4 7 5 6 6 6 5 7 7 6 7 7 8 8 8 8 8
13 13 13 13 11 14 14 14 13 13 12 12 13 10 7 5 4 3 3 3 2 4 5 7 9 9 9 9 9 7 8 8 9 9 8 8 7 6 7 8 7 7 6 6 6 7 7 7 6 5 6 7 6 3 2 3 5 5 4 1 3 1 5 6 7 9 2 2 5 6 5 5 6 5 5 7 6 7 8 8 8 7 9 8 8
12 13 12 14 12 13 13 12 10 10 11 12 13 10 10 11 9 9 9 8 9 8 12 15 12 11 12 7 6 8 8 8 7 8 8 7 7 6 5 5 6 6 6 6 6 6 5 5 8 7 7 6 6 4 3 2 5 5 6 4 4 5 5 3 4 8 2 5 5 3 4 4 6 6 5 7 8 8 7 8 8 9 8 8 8
13 10 11 12 13 12 12 12 12 11 11 11 11 10 10 10 13 14 13 13 13 12 9 5 8 7 5 7 7 7 8 8 7 7 7 7 7 7 7 7 7 7 6 6 6 6 7 7 5 5 7 6 3 5 6 5 0 4 5 7 7 5 3 3 6 4 10 4 1 1 5 4 5 5 6 8 9 8 8 8 9 9 8 8 8
13 10 10 9 12 12 11 12 11 11 11 10 11 12 12 12 12 13 12 12 13 13 8 5 4 5 7 7 6 7 7 7 7 6 7 7 7 6 7 7 7 7 6 6 7 7 5 4 5 7 6 6 6 6 6 5 5 4 4 7 7 6 5 3 4 7 9 11 13 7 5 4 4 7 6 7 9 9 10 9 9 9 9 9 9
9 10 11 11 10 10 10 9 11 9 8 10 11 12 12 12 12 11 11 10 9 6 3 4 5 5 7 6 7 6 6 7 6 6 6 7 7 7 7 6 6 6 6 6 6 6 7 7 6 6 7 7 6 6 5 6 5 7 3 4 3 6 6 5 4 3 6 7 11 7 9 3 4 6 6 6 8 8 9 10 9 9 8 8 8
6 6 5 5 6 6 8 9 11 9 8 10 11 12 12 10 11 11 12 9 5 3 4 5 5 5 7 7 7 6 6 6 6 6 6 6 7 7 7 7 7 6 6 7 7 6 5 6 8 9 7 6 5 6 7 6 5 3 3 4 4 3 2 2 3 3 5 7 12 9 8 11 12 9 6 6 7 9 10 8 8 8 8 9 8
5 5 5 6 5 7 7 10 11 8 8 10 10 12 12 10 11 11 11 9 6 6 4 4 4 4 6 6 6 5 5 6 5 6 7 6 6 7 7 7 7 7 7 5 6 8 9 9 5 3 4 6 6 5 5 4 4 4 3 3 4 5 6 4 5 3 5 5 7 11 10 7 8 12 5 7 7 8 10 8 8 8 8 9 8
Wind_Direction
202 165 204 138 130 124 118 113 111 108 106 110 104 107 108 102 99 102 99 94 94 93 89 87 83 81 82 78 78 81 79 75 76 75 74 75 74 74 75 72 71 69 68 68 70 67 69 69 68 70 68 67 67 66 65 66 68 69 70 71 69 68 66 65 61 59 58 59 63 68 71 75 74 73 73 72 72 70 70 68 66 69 67 65 68
170 181 162 134 125 120 114 111 115 119 118 106 103 107 111 108 108 106 101 99 97 89 86 90 85 82 86 85 78 75 78 77 77 77 75 74 74 75 75 76 73 73 74 75 74 73 69 68 69 68 68 66 63 64 66 70 74 76 74 73 72 69 68 65 63 62 61 62 62 61 64 68 73 76 76 75 75 73 72 74 73 71 69 72 70
137 146 154 134 124 118 117 117 118 119 115 111 100 101 107 108 109 110 104 102 96 93 95 95 93 93 88 84 86 83 79 80 78 75 78 79 78 77 75 75 76 75 73 76 77 75 73 72 71 68 66 63 63 66 71 76 78 79 78 76 73 71 70 68 66 64 63 62 61 58 62 62 68 73 76 76 76 76 75 76 76 75 76 76 74
134 148 141 135 122 115 115 116 113 110 109 105 106 105 110 110 111 109 105 102 103 101 88 92 98 93 92 93 88 86 83 81 81 83 83 81 79 78 78 78 77 78 78 75 73 77 82 78 73 68 62 59 62 68 74 80 80 79 78 77 74 72 70 68 66 63 61 59 61 64 57 58 61 72 75 75 74 72 71 75 77 76 74 72 72
135 140 134 116 114 118 117 117 117 112 110 110 104 109 112 112 113 108 103 105 103 100 100 96 93 94 89 85 89 89 88 88 85 83 82 83 84 83 81 81 79 78 78 78 76 74 79 81 75 65 57 53 53 64 76 80 80 79 78 77 74 71 68 66 64 62 60 60 60 62 47 49 65 72 79 80 77 74 74 74 73 72 71 71 69
138 135 127 117 115 123 123 119 120 121 115 108 107 107 113 116 116 110 109 106 102 103 98 91 89 93 94 87 83 86 87 87 87 87 88 88 85 85 86 84 82 81 80 82 83 80 84 87 78 67 57 57 60 72 82 83 82 80 79 76 74 71 69 66 64 61 61 65 63 50 44 42 51 59 72 79 77 73 73 71 70 70 69 67 66
134 133 127 123 122 124 123 123 120 114 111 113 110 111 114 117 115 112 112 108 105 98 96 98 99 96 90 90 93 89 87 90 94 94 90 83 87 86 82 83 84 82 83 82 82 85 86 86 80 68 63 63 68 77 81 82 81 81 81 79 78 74 72 69 65 63 61 60 43 44 48 52 56 74 71 70 71 72 69 67 67 67 66 63 62
124 127 130 128 125 131 128 124 120 115 114 110 109 108 112 114 115 121 118 115 110 103 102 99 98 92 91 93 95 91 92 89 86 91 94 89 86 83 86 85 83 83 80 81 83 87 90 88 82 74 70 69 72 76 81 83 82 81 80 79 78 76 72 69 65 62 59 58 51 45 47 46 53 55 65 65 65 64 65 67 67 66 67 67 60
132 133 131 132 135 136 130 126 123 121 118 117 106 106 111 119 118 117 113 112 111 108 106 105 101 95 94 96 92 95 93 92 94 93 90 93 90 87 86 85 85 84 85 84 84 88 92 88 77 73 70 70 72 75 80 83 83 83 80 79 78 75 73 68 64 58 56 56 53 54 52 45 49 63 71 71 69 69 68 61 59 65 68 68 67
137 131 135 133 140 138 134 129 125 120 116 114 115 107 111 118 120 119 118 118 113 113 107 101 98 95 88 94 99 89 92 93 97 96 97 93 92 90 87 86 85 83 84 86 86 90 93 87 79 71 70 68 69 74 78 81 81 81 81 78 77 74 71 65 59 53 54 50 49 55 69 64 36 62 74 72 73 73 74 78 86 79 73 70 70
138 139 138 136 146 145 136 128 124 122 119 119 120 114 113 117 122 123 122 121 118 114 108 105 102 101 101 103 99 94 96 101 102 102 98 94 92 90 89 89 88 89 89 87 87 91 95 90 80 71 68 66 65 72 79 82 84 85 84 83 80 77 72 65 58 56 50 46 45 31 37 48 62 72 79 79 77 73 70 73 73 76 75 75 74
139 140 140 143 151 145 134 130 129 127 123 121 120 120 115 119 122 123 124 126 121 113 110 108 107 104 103 102 107 105 105 106 106 102 98 97 97 95 94 94 94 90 88 89 91 94 100 92 81 73 67 64 65 70 79 85 88 90 90 88 85 81 76 70 67 62 57 51 44 36 34 39 48 70 77 78 77 77 72 71 73 76 78 80 80
142 144 144 146 146 145 137 133 132 130 128 124 126 127 122 123 124 126 128 127 123 115 114 111 108 109 107 106 106 115 121 117 113 106 102 101 101 101 101 99 98 98 96 96 94 95 99 96 85 76 70 67 66 68 78 88 91 93 93 92 89 83 75 67 66 60 52 46 42 39 41 43 52 72 72 75 77 75 76 74 70 73 76 79 82
145 147 147 145 149 149 139 136 135 134 130 130 131 131 128 127 128 129 129 127 121 117 115 115 114 114 117 114 114 92 79 114 110 108 107 105 104 103 102 101 100 101 102 100 97 97 97 96 85 77 72 69 68 68 72 79 87 91 92 91 91 85 77 67 59 56 49 39 34 33 31 37 67 70 67 71 75 77 79 75 72 75 77 75 72
146 149 147 145 150 151 143 140 139 137 133 132 131 129 130 131 130 131 129 125 121 120 120 119 119 121 124 122 114 91 95 110 109 104 109 109 109 108 104 102 103 104 103 102 101 98 98 96 85 77 73 70 69 71 73 73 74 76 84 89 88 85 88 79 68 64 55 46 34 36 23 31 72 73 75 77 79 81 77 79 87 87 84 85 84
146 149 145 145 147 151 144 147 142 138 136 135 132 126 128 130 133 131 129 127 125 127 126 124 122 122 122 125 116 101 101 105 110 113 113 112 111 108 107 107 108 106 105 105 104 103 100 97 88 81 74 73 69 70 72 68 67 71 81 89 95 98 97 95 84 75 73 62 48 41 27 49 79 82 85 87 89 87 86 86 90 91 86 81 77
145 146 149 148 150 153 151 147 147 141 138 139 135 128 125 128 133 132 128 126 127 127 121 113 118 124 121 108 103 100 95 96 99 99 97 103 107 104 104 107 105 106 107 108 107 106 101 96 91 85 80 74 69 69 67 63 60 62 74 86 91 92 91 90 83 80 79 72 58 37 35 40 84 82 81 81 82 85 88 92 88 84 81 82 81
148 152 154 153 153 156 152 144 143 140 138 135 135 137 134 127 120 123 127 128 125 117 111 115 113 111 107 103 103 98 94 96 96 99 101 101 103 100 105 109 110 110 111 110 109 106 103 100 93 86 82 76 70 71 65 59 58 56 56 84 95 96 92 84 81 73 66 62 41 26 21 77 81 88 86 88 94 96 95 92 95 103 102 80 78
152 156 157 156 158 157 152 147 149 146 146 140 141 142 137 132 125 122 123 121 119 117 117 116 115 116 112 107 103 98 96 97 98 100 99 96 92 92 98 108 112 112 111 108 108 104 102 100 93 90 83 77 73 71 63 59 58 62 66 83 96 100 97 96 93 84 70 51 27 29 22 61 80 80 84 85 80 80 84 88 91 75 77 94 90
157 158 163 164 164 161 155 153 154 153 152 148 145 141 138 136 132 128 126 124 125 124 123 120 119 116 115 111 104 94 88 89 93 93 101 100 97 98 99 103 110 112 109 109 106 104 103 99 97 93 87 77 66 61 54 54 57 61 66 94 97 97 95 103 109 98 98 85 71 30 22 9 86 87 87 87 87 92 94 91 90 89 77 80 91
160 168 169 168 168 168 164 158 161 159 153 151 144 140 144 137 132 131 129 130 131 132 129 125 123 124 119 118 108 99 98 94 86 93 93 102 106 97 96 97 98 105 109 108 106 103 99 97 102 103 93 74 49 45 44 48 44 49 62 82 94 94 105 102 100 99 81 78 56 17 3 29 88 92 96 102 102 88 91 105 109 88 89 90 86
170 174 184 169 171 174 170 165 162 163 158 153 152 143 143 138 137 139 135 134 133 132 133 138 137 135 129 124 116 116 112 109 108 104 106 108 109 110 102 100 99 97 100 106 107 100 95 95 99 107 90 58 28 12 14 35 34 44 58 78 91 114 124 124 117 108 97 61 42 16 6 69 70 86 80 85 90 92 96 109 103 129 112 99 104
176 180 185 178 176 174 173 172 171 166 162 159 158 150 144 134 148 149 145 145 147 144 148 149 149 146 141 130 134 132 132 132 133 131 122 121 124 119 115 109 107 105 106 108 112 101 88 83 90 96 82 43 27 5 358 2 9 28 42 65 94 122 129 127 129 131 140 142 88 58 17 314 101 108 90 83 105 97 102 93 101 99 100 97 129
177 181 180 183 177 179 180 178 174 170 167 165 159 158 156 154 158 156 154 157 158 158 162 162 163 159 150 145 143 143 137 131 127 123 116 110 112 113 116 117 116 115 116 117 121 122 101 82 83 45 36 26 7 355 355 338 331 21 23 61 90 129 136 152 145 154 159 155 150 86 28 81 86 67 115 138 81 110 135 129 129 125 130 148 49
176 173 176 179 183 182 181 181 178 173 171 167 165 171 168 165 165 162 164 169 171 172 175 172 174 169 160 159 153 139 139 136 137 131 127 131 125 124 125 127 131 129 121 118 113 88 85 97 73 51 16 360 353 329 355 330 315 11 359 1 91 132 144 155 172 159 181 184 196 119 93 48 120 239 70 54 108 127 262 186 177 180 187 233 92
163 175 185 177 185 185 180 180 179 178 178 174 177 171 167 170 172 174 169 181 181 184 186 181 180 180 169 164 145 142 149 149 150 147 146 148 146 154 156 146 141 158 141 133 132 107 105 125 135 185 277 319 296 296 295 260 288 333 357 334 82 129 147 174 182 195 199 209 247 152 162 198 220 211 216 184 96 292 263 245 230 224 255 260 224
181 190 180 182 183 185 185 174 180 180 182 177 169 170 184 182 178 176 173 186 186 186 198 192 188 183 172 161 148 158 161 168 164 164 163 163 165 172 172 172 166 167 189 142 188 193 196 157 155 220 305 280 297 297 289 245 241 243 274 340 299 131 149 170 187 186 207 220 245 195 179 208 234 295 276 226 207 228 243 267 259 256 264 286 252
183 190 184 180 183 187 184 175 180 179 183 176 171 180 183 181 184 179 187 185 180 196 200 199 181 185 172 171 160 163 165 172 179 172 181 169 180 185 177 181 183 188 188 173 162 238 269 222 158 247 234 240 252 280 298 293 306 81 110 163 280 61 127 172 187 198 203 218 238 229 206 219 258 270 274 287 232 219 236 231 250 251 250 250 272
195 197 192 181 186 187 182 182 180 182 180 177 179 181 181 185 181 186 192 186 193 195 198 200 183 187 174 168 160 161 172 176 176 186 165 190 185 181 188 194 192 190 173 222 183 198 242 237 210 241 283 274 241 252 231 233 229 276 193 231 248 284 273 139 183 199 210 212 220 238 229 221 230 250 262 272 255 248 232 238 248 253 255 253 251
202 197 193 196 184 183 185 186 182 183 179 177 186 180 182 185 190 192 192 182 201 196 184 203 195 178 181 174 167 166 178 178 181 178 170 197 193 185 200 203 200 179 177 205 213 184 209 224 227 231 230 248 243 250 253 287 310 310 257 251 280 255 236 195 180 195 209 210 223 231 241 234 226 232 245 260 260 279 286 222 232 243 248 254 254
195 204 202 201 188 180 190 188 184 182 177 183 184 186 181 189 191 193 187 191 195 193 189 195 205 187 184 177 171 178 179 183 177 176 185 192 199 184 206 204 212 196 184 205 198 193 190 192 192 204 216 224 230 253 235 264 279 295 265 246 258 267 267 260 193 199 203 218 223 228 237 246 244 236 238 245 250 258 262 257 253 247 251 250 248
196 204 202 196 192 192 189 190 184 182 180 186 182 185 186 189 189 189 195 194 188 192 192 189 202 200 185 183 174 178 184 196 184 177 184 189 198 198 201 189 212 209 192 194 191 197 189 200 189 198 215 218 242 284 284 254 268 267 286 275 281 273 256 246 246 209 216 220 228 231 234 241 245 246 243 246 245 248 254 252 258 269 258 253 251
204 199 199 194 199 197 191 191 184 183 185 187 186 188 185 186 187 191 194 193 191 190 195 194 197 202 195 184 182 176 182 189 202 187 190 192 191 193 191 197 200 197 191 193 183 182 171 165 240 169 176 197 244 270 323 256 262 268 291 281 295 286 276 264 245 244 234 227 229 230 232 234 238 246 248 247 249 249 249 256 258 260 270 260 254
197 199 196 202 200 198 194 188 188 186 189 186 184 186 186 186 187 188 186 191 194 191 199 198 193 198 198 195 187 179 182 189 187 204 192 196 197 193 188 197 192 180 178 167 173 177 183 173 209 144 214 210 228 262 305 274 265 278 282 269 273 255 262 276 260 245 244 238 229 234 238 235 236 235 239 250 250 251 252 253 258 260 261 271 265
195 197 200 202 198 198 192 195 190 191 189 187 184 188 184 181 186 186 185 188 193 195 196 194 194 197 193 200 194 184 182 183 188 188 195 191 199 203 199 199 180 168 165 183 172 185 175 198 173 197 242 262 264 271 236 250 273 284 274 278 272 271 273 257 260 261 254 247 243 240 236 242 242 239 239 240 252 253 253 255 256 257 259 261 267
198 199 201 198 201 200 194 195 190 193 194 193 187 185 183 181 184 186 184 186 189 195 194 192 189 191 196 197 197 190 178 180 180 177 185 191 195 202 206 194 178 163 172 173 161 180 197 208 217 191 223 258 270 272 237 256 254 264 266 274 268 271 270 270 262 259 251 252 256 257 249 243 244 242 238 239 242 248 250 251 254 257 259 261 264
198 196 197 196 200 201 196 195 191 194 194 195 191 186 183 182 183 184 187 185 189 196 195 190 189 190 196 201 196 192 182 171 170 171 172 188 195 204 205 192 176 171 171 176 185 193 184 208 232 222 202 232 232 259 278 265 269 263 273 271 266 264 263 255 255 251 257 246 251 250 257 255 245 243 243 244 243 247 252 253 254 256 258 260 262
199 199 197 194 198 196 198 198 193 193 192 192 192 188 187 183 184 185 186 191 196 194 193 189 195 196 193 201 200 196 192 178 172 165 162 177 188 198 202 189 177 175 177 174 201 192 197 189 227 231 212 212 235 239 260 265 262 270 275 270 269 263 257 257 251 255 250 255 249 245 241 246 250 249 247 247 249 250 254 257 258 260 260 260 260
201 200 200 200 196 196 197 199 192 191 192 189 189 187 181 184 183 184 192 201 201 199 193 196 199 198 199 196 198 202 201 189 181 174 171 169 177 193 200 199 184 183 180 187 199 197 205 213 218 239 220 222 216 222 232 235 251 256 262 263 266 260 261 261 263 256 249 243 245 246 245 248 246 253 254 252 250 253 256 258 261 260 261 258 256
205 197 197 198 197 195 195 198 197 188 182 182 177 183 180 183 186 195 204 206 203 200 202 203 196 203 201 194 196 201 206 203 184 182 184 181 183 191 199 195 202 185 180 184 202 198 208 214 231 227 242 255 242 245 234 240 256 272 274 277 261 265 266 252 251 246 248 246 246 253 254 262 256 259 255 254 256 257 259 264 261 260 263 266 263
208 202 193 198 197 193 189 199 196 184 177 178 183 182 187 190 195 196 204 199 202 200 206 205 203 205 199 199 195 200 202 213 202 187 199 195 200 197 197 197 192 188 187 199 200 206 207 203 216 206 227 243 257 224 250 223 309 297 286 279 291 252 251 245 241 248 243 244 254 256 260 267 257 258 255 254 256 259 260 261 263 264 264 264 269
212 204 202 199 198 194 193 197 189 192 191 187 185 190 192 194 194 201 196 192 194 199 207 206 207 202 201 201 200 195 199 205 213 207 196 199 209 196 201 200 190 196 197 202 205 203 191 204 201 227 218 223 241 214 219 120 273 249 298 310 290 273 256 252 249 252 257 257 243 240 248 247 253 253 260 254 257 254 255 253 256 257 258 259 263
204 204 206 201 197 195 198 194 193 194 197 193 187 196 197 196 194 194 191 192 213 207 208 203 199 203 205 203 200 198 194 203 201 204 208 202 204 209 207 195 195 189 194 204 196 203 201 212 203 208 236 275 245 271 206 186 242 187 212 330 312 331 338 290 311 280 257 254 240 238 247 249 251 247 251 258 254 254 252 253 254 253 254 254 256
206 208 208 205 200 198 196 196 197 197 197 198 199 201 197 192 193 161 176 169 187 196 203 201 204 207 212 203 206 199 195 197 196 199 204 205 203 198 192 198 200 193 194 196 199 212 206 215 210 219 194 250 222 254 210 207 210 152 294 221 261 76 314 324 301 270 231 239 224 239 227 243 258 266 277 262 260 264 264 258 256 256 257 256 253
207 205 203 203 202 200 198 196 195 198 199 197 199 196 176 166 166 108 123 151 64 162 200 218 208 207 208 206 205 194 201 201 196 197 198 201 198 202 194 200 201 195 194 201 201 213 211 212 202 199 195 212 244 245 292 212 230 226 200 305 327 332 233 286 343 299 179 236 249 237 240 244 258 267 264 266 266 263 263 265 260 257 257 254 255
211 209 205 206 203 203 202 198 196 198 201 200 196 186 185 184 176 184 189 197 206 192 206 207 202 200 207 197 193 197 198 201 199 197 198 199 195 196 202 199 201 194 194 203 210 211 218 208 210 204 211 217 227 227 261 259 224 232 246 233 207 254 296 267 8 301 300 210 239 223 246 231 238 253 250 264 263 260 256 261 258 260 256 256 257
215 206 207 208 207 206 203 198 197 198 200 198 189 186 190 194 195 200 203 203 208 217 219 208 203 207 192 198 202 197 201 199 201 196 195 199 200 193 200 203 202 200 200 201 209 212 216 216 195 196 215 218 198 244 233 251 161 255 242 252 272 280 269 297 264 303 301 323 36 243 265 226 235 235 239 246 254 258 258 251 258 256 255 252 251
209 202 207 207 206 206 199 201 201 200 198 191 188 190 194 198 201 207 208 210 211 219 205 201 172 171 194 204 197 201 202 204 201 198 194 194 203 204 202 201 194 198 191 203 210 218 214 210 195 205 211 208 205 218 242 227 217 254 197 235 248 262 274 265 256 243 276 288 295 290 245 259 242 248 237 248 254 253 259 256 255 253 250 250 246
203 199 203 203 205 206 205 203 205 199 197 190 189 196 200 199 202 206 212 219 219 216 158 157 174 176 194 203 202 199 200 206 204 198 199 196 196 203 198 194 190 193 189 204 217 213 202 203 208 206 211 214 204 216 225 238 213 240 208 261 239 251 253 248 259 225 245 281 280 275 297 289 277 271 260 242 257 256 253 256 253 254 257 253 247
213 211 212 202 203 193 198 199 207 200 196 193 193 198 201 198 204 208 212 214 199 177 154 171 179 178 198 201 200 196 195 199 203 201 200 203 198 197 195 193 192 191 188 199 205 205 209 215 213 211 211 213 210 207 216 232 229 241 215 235 238 280 301 276 242 245 265 234 270 287 286 291 288 278 275 262 252 262 265 261 259 256 253 254 249
210 201 207 203 198 197 198 202 207 197 195 197 193 200 200 201 208 207 209 205 187 175 170 184 181 181 205 199 194 193 187 198 190 201 200 196 202 195 191 193 191 187 188 192 202 203 212 216 211 193 201 211 220 215 227 245 240 249 265 238 245 244 254 272 290 250 241 280 292 275 274 262 265 291 249 244 260 261 266 265 261 257 251 253 253